Time,TemperatureF,DewpointF,PressureIn,WindDirection,WindDirectionDegrees,WindSpeedMPH,WindSpeedGustMPH,Humidity,HourlyPrecipIn,Conditions,Clouds,dailyrainin,SoftwareType,DateUTC
2013-04-08 00:00:00,39.2,37.0,29.98,SSW,202,4.4,14.0,92,0.00,,,0.00,Rainwise IP-100,2013-04-08 04:00:00,
2013-04-08 00:01:00,39.3,37.0,29.99,SSW,202,5.4,14.0,92,0.00,,,0.00,Rainwise IP-100,2013-04-08 04:01:00,
2013-04-08 00:06:00,39.4,37.0,29.98,SSE,157,10.5,15.9,92,0.00,,,0.00,Rainwise IP-100,2013-04-08 04:06:00,
2013-04-08 00:11:00,39.7,38.0,29.99,SSW,202,5.4,15.9,92,0.00,,,0.00,Rainwise IP-100,2013-04-08 04:11:00,
2013-04-08 00:16:00,39.9,38.0,29.98,SSW,202,7.5,13.3,92,0.00,,,0.00,Rainwise IP-100,2013-04-08 04:16:00,
2013-04-08 00:21:00,40.0,38.0,29.98,SSW,202,1.6,14.0,92,0.00,,,0.00,Rainwise IP-100,2013-04-08 04:21:00,
2013-04-08 00:26:00,40.1,38.0,29.98,SSW,202,3.7,17.5,92,0.00,,,0.00,Rainwise IP-100,2013-04-08 04:26:00,
2013-04-08 00:31:00,40.3,38.0,29.97,SW,225,3.3,18.9,92,0.00,,,0.00,Rainwise IP-100,2013-04-08 04:31:00,
2013-04-08 00:36:00,40.5,39.0,29.98,SSW,202,11.0,15.2,92,0.00,,,0.00,Rainwise IP-100,2013-04-08 04:36:00,
2013-04-08 00:41:00,40.7,39.0,29.98,SSW,202,7.2,17.0,91,0.00,,,0.00,Rainwise IP-100,2013-04-08 04:41:00,
2013-04-08 00:46:00,40.9,39.0,29.98,South,180,8.2,13.5,91,0.00,,,0.00,Rainwise IP-100,2013-04-08 04:46:00,
2013-04-08 00:51:00,41.0,39.0,29.97,SW,225,4.0,16.8,91,0.00,,,0.00,Rainwise IP-100,2013-04-08 04:51:00,
2013-04-08 00:56:00,41.0,39.0,29.98,SW,225,8.6,15.9,91,0.00,,,0.00,Rainwise IP-100,2013-04-08 04:56:00,
2013-04-08 01:01:00,41.2,39.0,29.97,SSW,202,10.5,13.1,91,0.00,,,0.00,Rainwise IP-100,2013-04-08 05:01:00,
2013-04-08 01:06:00,41.3,39.0,29.97,SSW,202,4.4,13.1,91,0.00,,,0.00,Rainwise IP-100,2013-04-08 05:06:00,
2013-04-08 01:12:00,41.4,39.0,29.97,WNW,292,5.4,12.1,91,0.00,,,0.00,Rainwise IP-100,2013-04-08 05:12:00,
2013-04-08 01:17:00,41.4,39.0,29.97,WSW,247,2.1,15.9,91,0.00,,,0.00,Rainwise IP-100,2013-04-08 05:17:00,
2013-04-08 01:21:00,41.4,39.0,29.97,SSW,202,5.4,13.3,91,0.00,,,0.00,Rainwise IP-100,2013-04-08 05:21:00,
2013-04-08 01:26:00,41.5,40.0,29.95,SSE,157,6.8,17.0,91,0.00,,,0.00,Rainwise IP-100,2013-04-08 05:26:00,
2013-04-08 01:32:00,41.5,40.0,29.95,WSW,247,7.0,14.0,91,0.00,,,0.00,Rainwise IP-100,2013-04-08 05:32:00,
2013-04-08 01:36:00,41.5,40.0,29.95,SE,135,4.4,18.2,91,0.00,,,0.00,Rainwise IP-100,2013-04-08 05:36:00,
2013-04-08 01:42:00,41.5,40.0,29.95,SSW,202,10.7,14.7,91,0.00,,,0.00,Rainwise IP-100,2013-04-08 05:42:00,
2013-04-08 01:47:00,41.5,40.0,29.95,WSW,247,4.4,14.9,91,0.00,,,0.00,Rainwise IP-100,2013-04-08 05:47:00,
2013-04-08 01:52:00,41.5,40.0,29.94,SSW,202,4.7,12.8,92,0.00,,,0.00,Rainwise IP-100,2013-04-08 05:52:00,
2013-04-08 01:56:00,41.4,39.0,29.94,WSW,247,8.4,16.8,92,0.00,,,0.00,Rainwise IP-100,2013-04-08 05:56:00,
2013-04-08 02:02:00,41.4,39.0,29.95,WSW,247,6.5,11.4,92,0.00,,,0.00,Rainwise IP-100,2013-04-08 06:02:00,
2013-04-08 02:07:00,41.3,39.0,29.95,WSW,247,13.1,14.2,92,0.00,,,0.00,Rainwise IP-100,2013-04-08 06:07:00,
2013-04-08 02:11:00,41.3,39.0,29.94,SSW,202,8.6,14.2,92,0.00,,,0.00,Rainwise IP-100,2013-04-08 06:11:00,
2013-04-08 02:17:00,41.2,39.0,29.93,SSW,202,10.7,14.0,93,0.00,,,0.00,Rainwise IP-100,2013-04-08 06:17:00,
2013-04-08 02:22:00,41.2,39.0,29.94,SSW,202,3.7,22.6,93,0.00,,,0.00,Rainwise IP-100,2013-04-08 06:22:00,
2013-04-08 02:27:00,41.2,39.0,29.94,SW,225,3.0,12.1,93,0.00,,,0.00,Rainwise IP-100,2013-04-08 06:27:00,
2013-04-08 02:31:00,41.1,39.0,29.93,WSW,247,3.5,13.5,93,0.00,,,0.00,Rainwise IP-100,2013-04-08 06:31:00,
2013-04-08 02:36:00,41.0,39.0,29.93,SSW,202,9.3,12.4,93,0.00,,,0.00,Rainwise IP-100,2013-04-08 06:36:00,
2013-04-08 02:42:00,41.0,39.0,29.92,WSW,247,6.3,13.8,94,0.00,,,0.00,Rainwise IP-100,2013-04-08 06:42:00,
2013-04-08 02:47:00,41.0,39.0,29.92,SSW,202,9.8,12.8,94,0.00,,,0.00,Rainwise IP-100,2013-04-08 06:47:00,
2013-04-08 02:52:00,40.9,39.0,29.92,SSW,202,5.8,10.0,94,0.00,,,0.00,Rainwise IP-100,2013-04-08 06:52:00,
2013-04-08 02:56:00,40.8,39.0,29.91,WSW,247,5.8,16.8,94,0.00,,,0.00,Rainwise IP-100,2013-04-08 06:56:00,
2013-04-08 03:01:00,40.8,40.0,29.91,SSW,202,6.8,11.2,95,0.00,,,0.00,Rainwise IP-100,2013-04-08 07:01:00,
2013-04-08 03:06:00,40.7,40.0,29.91,SSE,157,5.8,15.2,95,0.00,,,0.00,Rainwise IP-100,2013-04-08 07:06:00,
2013-04-08 03:12:00,40.7,40.0,29.91,SSW,202,6.5,14.2,95,0.00,,,0.00,Rainwise IP-100,2013-04-08 07:12:00,
2013-04-08 03:17:00,40.6,40.0,29.91,SSW,202,5.6,12.1,95,0.00,,,0.00,Rainwise IP-100,2013-04-08 07:17:00,
2013-04-08 03:22:00,40.6,40.0,29.91,SSW,202,4.9,13.5,95,0.00,,,0.00,Rainwise IP-100,2013-04-08 07:22:00,
2013-04-08 03:27:00,40.5,40.0,29.91,South,180,6.8,11.0,95,0.00,,,0.00,Rainwise IP-100,2013-04-08 07:27:00,
2013-04-08 03:32:00,40.5,40.0,29.91,SE,135,3.0,17.0,96,0.00,,,0.00,Rainwise IP-100,2013-04-08 07:32:00,
2013-04-08 03:37:00,40.5,40.0,29.91,SW,225,6.5,11.0,96,0.00,,,0.00,Rainwise IP-100,2013-04-08 07:37:00,
2013-04-08 03:42:00,40.4,39.0,29.91,SSW,202,3.3,6.8,96,0.00,,,0.00,Rainwise IP-100,2013-04-08 07:42:00,
2013-04-08 03:47:00,40.4,39.0,29.91,SSW,202,2.6,11.2,96,0.00,,,0.00,Rainwise IP-100,2013-04-08 07:47:00,
2013-04-08 03:52:00,40.3,39.0,29.91,WSW,247,3.7,10.0,96,0.00,,,0.00,Rainwise IP-100,2013-04-08 07:52:00,
2013-04-08 03:57:00,40.3,39.0,29.91,SSW,202,3.7,9.3,96,0.00,,,0.00,Rainwise IP-100,2013-04-08 07:57:00,
2013-04-08 04:02:00,40.2,39.0,29.91,SW,225,2.3,11.0,96,0.00,,,0.00,Rainwise IP-100,2013-04-08 08:02:00,
2013-04-08 04:07:00,40.1,39.0,29.91,WSW,247,2.6,9.6,96,0.00,,,0.00,Rainwise IP-100,2013-04-08 08:07:00,
2013-04-08 04:12:00,40.1,39.0,29.91,West,270,4.0,7.9,96,0.00,,,0.00,Rainwise IP-100,2013-04-08 08:12:00,
2013-04-08 04:17:00,40.1,39.0,29.91,West,270,3.0,11.4,97,0.00,,,0.00,Rainwise IP-100,2013-04-08 08:17:00,
2013-04-08 04:22:00,40.0,39.0,29.91,SW,225,3.0,6.3,97,0.00,,,0.00,Rainwise IP-100,2013-04-08 08:22:00,
2013-04-08 04:27:00,39.9,39.0,29.91,SSW,202,4.2,6.1,97,0.00,,,0.00,Rainwise IP-100,2013-04-08 08:27:00,
2013-04-08 04:32:00,39.8,39.0,29.91,SSW,202,2.1,11.0,97,0.00,,,0.00,Rainwise IP-100,2013-04-08 08:32:00,
2013-04-08 04:37:00,39.7,39.0,29.91,SSW,202,5.1,9.8,97,0.00,,,0.00,Rainwise IP-100,2013-04-08 08:37:00,
2013-04-08 04:42:00,39.7,39.0,29.91,SSW,202,5.1,8.9,97,0.00,,,0.00,Rainwise IP-100,2013-04-08 08:42:00,
2013-04-08 04:47:00,39.6,39.0,29.91,SW,225,2.8,10.5,97,0.00,,,0.00,Rainwise IP-100,2013-04-08 08:47:00,
2013-04-08 04:52:00,39.5,40.0,29.91,SSW,202,5.1,7.9,98,0.00,,,0.00,Rainwise IP-100,2013-04-08 08:52:00,
2013-04-08 04:57:00,39.4,39.0,29.91,SW,225,3.3,7.2,98,0.00,,,0.00,Rainwise IP-100,2013-04-08 08:57:00,
2013-04-08 05:02:00,39.2,39.0,29.91,WSW,247,1.9,7.9,98,0.00,,,0.00,Rainwise IP-100,2013-04-08 09:02:00,
2013-04-08 05:07:00,39.1,39.0,29.91,WSW,247,4.2,6.3,98,0.00,,,0.00,Rainwise IP-100,2013-04-08 09:07:00,
2013-04-08 05:12:00,39.0,39.0,29.92,WSW,247,1.4,4.4,98,0.00,,,0.00,Rainwise IP-100,2013-04-08 09:12:00,
2013-04-08 05:17:00,38.8,39.0,29.91,SSW,202,2.1,4.2,98,0.00,,,0.00,Rainwise IP-100,2013-04-08 09:17:00,
2013-04-08 05:22:00,38.6,39.0,29.91,WSW,247,0.0,4.2,98,0.00,,,0.00,Rainwise IP-100,2013-04-08 09:22:00,
2013-04-08 05:27:00,38.3,38.0,29.91,SSW,202,1.6,2.8,98,0.00,,,0.00,Rainwise IP-100,2013-04-08 09:27:00,
2013-04-08 05:32:00,38.1,38.0,29.92,WSW,247,1.4,2.6,99,0.00,,,0.00,Rainwise IP-100,2013-04-08 09:32:00,
2013-04-08 05:37:00,37.9,38.0,29.91,WSW,247,1.2,1.9,99,0.00,,,0.00,Rainwise IP-100,2013-04-08 09:37:00,
2013-04-08 05:42:00,37.5,38.0,29.91,WSW,247,0.0,2.1,99,0.00,,,0.00,Rainwise IP-100,2013-04-08 09:42:00,
2013-04-08 05:47:00,37.4,37.0,29.91,WSW,247,0.0,3.0,99,0.00,,,0.00,Rainwise IP-100,2013-04-08 09:47:00,
2013-04-08 05:52:00,37.3,37.0,29.91,WSW,247,0.0,1.6,99,0.00,,,0.00,Rainwise IP-100,2013-04-08 09:52:00,
2013-04-08 05:57:00,37.0,37.0,29.91,WSW,247,1.9,2.3,100,0.00,,,0.00,Rainwise IP-100,2013-04-08 09:57:00,
2013-04-08 06:02:00,36.9,37.0,29.92,WSW,247,0.0,2.6,100,0.00,,,0.00,Rainwise IP-100,2013-04-08 10:02:00,
2013-04-08 06:07:00,36.7,37.0,29.92,WSW,247,1.4,2.1,100,0.00,,,0.00,Rainwise IP-100,2013-04-08 10:07:00,
2013-04-08 06:12:00,36.6,37.0,29.92,WSW,247,1.2,2.8,100,0.00,,,0.00,Rainwise IP-100,2013-04-08 10:12:00,
2013-04-08 06:17:00,36.7,37.0,29.92,West,270,1.9,1.9,100,0.00,,,0.00,Rainwise IP-100,2013-04-08 10:17:00,
2013-04-08 06:22:00,36.7,37.0,29.92,WSW,247,2.8,2.8,100,0.00,,,0.00,Rainwise IP-100,2013-04-08 10:22:00,
2013-04-08 06:27:00,36.9,37.0,29.93,WSW,247,0.0,3.3,100,0.00,,,0.00,Rainwise IP-100,2013-04-08 10:27:00,
2013-04-08 06:32:00,37.1,37.0,29.93,WNW,292,0.0,4.0,100,0.00,,,0.00,Rainwise IP-100,2013-04-08 10:32:00,
2013-04-08 06:37:00,37.3,37.0,29.93,West,270,1.4,2.6,100,0.00,,,0.00,Rainwise IP-100,2013-04-08 10:37:00,
2013-04-08 06:42:00,37.5,38.0,29.93,WNW,292,0.0,4.4,100,0.00,,,0.00,Rainwise IP-100,2013-04-08 10:42:00,
2013-04-08 06:47:00,37.7,38.0,29.93,West,270,2.6,5.1,100,0.00,,,0.00,Rainwise IP-100,2013-04-08 10:47:00,
2013-04-08 06:52:00,38.0,38.0,29.93,WNW,292,1.2,2.8,100,0.00,,,0.00,Rainwise IP-100,2013-04-08 10:52:00,
2013-04-08 06:57:00,38.3,38.0,29.94,West,270,1.2,3.0,100,0.00,,,0.00,Rainwise IP-100,2013-04-08 10:57:00,
2013-04-08 07:02:00,38.4,38.0,29.94,NW,315,2.6,2.6,100,0.00,,,0.00,Rainwise IP-100,2013-04-08 11:02:00,
2013-04-08 07:07:00,38.6,39.0,29.95,NW,315,1.4,3.7,100,0.00,,,0.00,Rainwise IP-100,2013-04-08 11:07:00,
2013-04-08 07:12:00,38.9,39.0,29.94,NW,315,2.8,7.9,99,0.00,,,0.00,Rainwise IP-100,2013-04-08 11:12:00,
2013-04-08 07:17:00,39.3,39.0,29.95,West,270,4.0,7.7,99,0.00,,,0.00,Rainwise IP-100,2013-04-08 11:17:00,
2013-04-08 07:22:00,39.8,39.0,29.95,WNW,292,5.8,7.2,97,0.00,,,0.00,Rainwise IP-100,2013-04-08 11:22:00,
2013-04-08 07:27:00,40.2,39.0,29.95,West,270,4.4,10.0,96,0.00,,,0.00,Rainwise IP-100,2013-04-08 11:27:00,
2013-04-08 07:32:00,40.8,39.0,29.95,WNW,292,4.9,9.3,94,0.00,,,0.00,Rainwise IP-100,2013-04-08 11:32:00,
2013-04-08 07:37:00,41.6,40.0,29.95,WNW,292,7.2,12.1,92,0.00,,,0.00,Rainwise IP-100,2013-04-08 11:37:00,
2013-04-08 07:42:00,42.6,40.0,29.95,WNW,292,4.0,15.9,89,0.00,,,0.00,Rainwise IP-100,2013-04-08 11:42:00,
2013-04-08 07:47:00,43.3,39.0,29.96,WSW,247,1.2,12.4,87,0.00,,,0.00,Rainwise IP-100,2013-04-08 11:47:00,
2013-04-08 07:52:00,43.7,39.0,29.96,WNW,292,6.5,11.0,84,0.00,,,0.00,Rainwise IP-100,2013-04-08 11:52:00,
2013-04-08 07:57:00,44.1,39.0,29.96,WNW,292,3.0,12.4,83,0.00,,,0.00,Rainwise IP-100,2013-04-08 11:57:00,
2013-04-08 08:02:00,44.4,38.0,29.97,WNW,292,3.0,12.1,81,0.00,,,0.00,Rainwise IP-100,2013-04-08 12:02:00,
2013-04-08 08:07:00,44.6,39.0,29.97,NNW,337,3.3,10.5,80,0.00,,,0.00,Rainwise IP-100,2013-04-08 12:07:00,
2013-04-08 08:12:00,44.9,39.0,29.97,WNW,292,7.9,13.1,79,0.00,,,0.00,Rainwise IP-100,2013-04-08 12:12:00,
2013-04-08 08:17:00,45.3,38.0,29.98,WNW,292,4.0,12.6,77,0.00,,,0.00,Rainwise IP-100,2013-04-08 12:17:00,
2013-04-08 08:22:00,45.7,39.0,29.97,ENE,67,3.7,10.3,76,0.00,,,0.00,Rainwise IP-100,2013-04-08 12:22:00,
2013-04-08 08:27:00,46.0,38.0,29.98,NW,315,7.2,13.1,75,0.00,,,0.00,Rainwise IP-100,2013-04-08 12:27:00,
2013-04-08 08:32:00,46.3,38.0,29.98,WNW,292,7.2,15.4,73,0.00,,,0.00,Rainwise IP-100,2013-04-08 12:32:00,
2013-04-08 08:37:00,46.6,38.0,29.98,WNW,292,3.3,12.4,72,0.00,,,0.00,Rainwise IP-100,2013-04-08 12:37:00,
2013-04-08 08:42:00,46.9,38.0,29.98,WSW,247,7.5,9.6,72,0.00,,,0.00,Rainwise IP-100,2013-04-08 12:42:00,
2013-04-08 08:47:00,47.1,38.0,29.98,WNW,292,2.8,13.3,71,0.00,,,0.00,Rainwise IP-100,2013-04-08 12:47:00,
2013-04-08 08:52:00,47.2,37.0,29.98,WNW,292,4.7,11.0,70,0.00,,,0.00,Rainwise IP-100,2013-04-08 12:52:00,
2013-04-08 08:57:00,47.7,38.0,29.98,NNW,337,5.6,14.5,69,0.00,,,0.00,Rainwise IP-100,2013-04-08 12:57:00,
2013-04-08 09:02:00,48.1,38.0,29.98,NNW,337,3.7,9.3,68,0.00,,,0.00,Rainwise IP-100,2013-04-08 13:02:00,
2013-04-08 09:07:00,48.8,38.0,29.98,WNW,292,4.2,8.2,67,0.00,,,0.00,Rainwise IP-100,2013-04-08 13:07:00,
2013-04-08 09:12:00,49.4,38.0,29.98,WSW,247,3.0,15.6,65,0.00,,,0.00,Rainwise IP-100,2013-04-08 13:12:00,
2013-04-08 09:17:00,49.4,37.0,29.98,West,270,6.3,14.0,64,0.00,,,0.00,Rainwise IP-100,2013-04-08 13:17:00,
2013-04-08 09:22:00,49.2,37.0,29.98,NW,315,8.9,11.0,63,0.00,,,0.00,Rainwise IP-100,2013-04-08 13:22:00,
2013-04-08 09:27:00,49.1,37.0,29.98,WNW,292,6.1,14.5,63,0.00,,,0.00,Rainwise IP-100,2013-04-08 13:27:00,
2013-04-08 09:32:00,49.0,37.0,29.98,NW,315,6.8,16.6,63,0.00,,,0.00,Rainwise IP-100,2013-04-08 13:32:00,
2013-04-08 09:37:00,49.1,37.0,29.99,NNW,337,7.2,14.2,63,0.00,,,0.00,Rainwise IP-100,2013-04-08 13:37:00,
2013-04-08 09:42:00,49.5,37.0,29.99,North,360,11.4,13.8,62,0.00,,,0.00,Rainwise IP-100,2013-04-08 13:42:00,
2013-04-08 09:47:00,49.7,37.0,29.99,NNW,337,5.8,14.0,61,0.00,,,0.00,Rainwise IP-100,2013-04-08 13:47:00,
2013-04-08 09:52:00,49.8,37.0,29.99,NNW,337,2.3,13.5,61,0.00,,,0.00,Rainwise IP-100,2013-04-08 13:52:00,
2013-04-08 09:57:00,49.9,37.0,29.99,WNW,292,3.0,15.2,60,0.00,,,0.00,Rainwise IP-100,2013-04-08 13:57:00,
2013-04-08 10:02:00,50.0,37.0,29.99,NNW,337,2.3,13.8,60,0.00,,,0.00,Rainwise IP-100,2013-04-08 14:02:00,
2013-04-08 10:07:00,50.1,36.0,30.00,NNW,337,6.1,9.6,59,0.00,,,0.00,Rainwise IP-100,2013-04-08 14:07:00,
2013-04-08 10:12:00,50.2,36.0,30.00,NNW,337,9.8,11.7,59,0.00,,,0.00,Rainwise IP-100,2013-04-08 14:12:00,
2013-04-08 10:17:00,50.2,36.0,30.00,WNW,292,4.4,14.0,59,0.00,,,0.00,Rainwise IP-100,2013-04-08 14:17:00,
2013-04-08 10:22:00,50.3,37.0,30.00,NNW,337,13.8,15.2,59,0.00,,,0.00,Rainwise IP-100,2013-04-08 14:22:00,
2013-04-08 10:27:00,50.8,37.0,30.00,West,270,5.4,14.0,58,0.00,,,0.00,Rainwise IP-100,2013-04-08 14:27:00,
2013-04-08 10:32:00,51.4,37.0,30.00,WNW,292,3.5,13.5,57,0.00,,,0.00,Rainwise IP-100,2013-04-08 14:32:00,
2013-04-08 10:37:00,51.4,36.0,30.00,NNW,337,6.1,8.9,56,0.00,,,0.00,Rainwise IP-100,2013-04-08 14:37:00,
2013-04-08 10:43:00,51.2,36.0,30.01,East,90,1.2,12.8,56,0.00,,,0.00,Rainwise IP-100,2013-04-08 14:43:00,
2013-04-08 10:47:00,51.2,36.0,30.01,NNW,337,7.5,12.1,56,0.00,,,0.00,Rainwise IP-100,2013-04-08 14:47:00,
2013-04-08 10:53:00,51.5,37.0,30.01,WNW,292,8.9,14.9,56,0.00,,,0.00,Rainwise IP-100,2013-04-08 14:53:00,
2013-04-08 10:58:00,51.7,36.0,30.02,NNE,22,4.0,12.8,55,0.00,,,0.00,Rainwise IP-100,2013-04-08 14:58:00,
2013-04-08 11:03:00,51.9,36.0,30.02,NW,315,4.2,13.5,54,0.00,,,0.00,Rainwise IP-100,2013-04-08 15:03:00,
2013-04-08 11:08:00,52.3,36.0,30.02,NNW,337,8.6,15.2,54,0.00,,,0.00,Rainwise IP-100,2013-04-08 15:08:00,
2013-04-08 11:12:00,52.7,36.0,30.02,North,360,2.8,10.7,53,0.00,,,0.00,Rainwise IP-100,2013-04-08 15:12:00,
2013-04-08 11:18:00,52.8,36.0,30.02,WNW,292,4.7,13.5,53,0.00,,,0.00,Rainwise IP-100,2013-04-08 15:18:00,
2013-04-08 11:22:00,52.9,36.0,30.02,NW,315,6.8,13.3,52,0.00,,,0.00,Rainwise IP-100,2013-04-08 15:22:00,
2013-04-08 11:28:00,52.9,36.0,30.02,WNW,292,3.5,13.8,52,0.00,,,0.00,Rainwise IP-100,2013-04-08 15:28:00,
2013-04-08 11:32:00,52.5,36.0,30.02,NW,315,5.8,12.6,52,0.00,,,0.00,Rainwise IP-100,2013-04-08 15:32:00,
2013-04-08 11:37:00,52.1,35.0,30.02,NW,315,2.1,13.8,52,0.00,,,0.00,Rainwise IP-100,2013-04-08 15:37:00,
2013-04-08 11:42:00,52.2,35.0,30.02,NNW,337,7.2,14.9,52,0.00,,,0.00,Rainwise IP-100,2013-04-08 15:42:00,
2013-04-08 11:47:00,52.0,36.0,30.02,ENE,67,3.7,15.2,53,0.00,,,0.00,Rainwise IP-100,2013-04-08 15:47:00,
2013-04-08 11:52:00,52.1,36.0,30.02,WNW,292,3.7,8.6,53,0.00,,,0.00,Rainwise IP-100,2013-04-08 15:52:00,
2013-04-08 11:58:00,52.5,36.0,30.03,WSW,247,3.7,11.9,53,0.00,,,0.00,Rainwise IP-100,2013-04-08 15:58:00,
2013-04-08 12:03:00,52.7,36.0,30.02,WSW,247,4.0,12.4,52,0.00,,,0.00,Rainwise IP-100,2013-04-08 16:03:00,
2013-04-08 12:07:00,52.7,35.0,30.03,NNW,337,4.4,17.5,51,0.00,,,0.00,Rainwise IP-100,2013-04-08 16:07:00,
2013-04-08 12:12:00,52.6,35.0,30.03,NW,315,4.7,13.8,51,0.00,,,0.00,Rainwise IP-100,2013-04-08 16:12:00,
2013-04-08 12:18:00,53.1,35.0,30.03,NNE,22,2.3,17.0,50,0.00,,,0.00,Rainwise IP-100,2013-04-08 16:18:00,
2013-04-08 12:23:00,53.6,36.0,30.03,WSW,247,4.4,15.6,50,0.00,,,0.00,Rainwise IP-100,2013-04-08 16:23:00,
2013-04-08 12:27:00,53.5,35.0,30.03,WNW,292,6.3,15.2,49,0.00,,,0.00,Rainwise IP-100,2013-04-08 16:27:00,
2013-04-08 12:32:00,53.2,35.0,30.03,NNW,337,4.4,15.9,49,0.00,,,0.00,Rainwise IP-100,2013-04-08 16:32:00,
2013-04-08 12:37:00,53.4,35.0,30.03,WNW,292,7.5,19.6,49,0.00,,,0.00,Rainwise IP-100,2013-04-08 16:37:00,
2013-04-08 12:42:00,54.0,36.0,30.03,North,360,4.4,13.8,49,0.00,,,0.00,Rainwise IP-100,2013-04-08 16:42:00,
2013-04-08 12:47:00,54.4,36.0,30.04,NW,315,5.1,10.7,49,0.00,,,0.00,Rainwise IP-100,2013-04-08 16:47:00,
2013-04-08 12:52:00,53.7,35.0,30.04,North,360,11.4,11.4,49,0.00,,,0.00,Rainwise IP-100,2013-04-08 16:52:00,
2013-04-08 12:58:00,52.4,35.0,30.04,NW,315,7.2,11.9,51,0.00,,,0.00,Rainwise IP-100,2013-04-08 16:58:00,
2013-04-08 13:03:00,52.2,35.0,30.04,NNW,337,2.6,13.1,52,0.00,,,0.00,Rainwise IP-100,2013-04-08 17:03:00,
2013-04-08 13:08:00,52.8,36.0,30.05,WSW,247,1.6,14.9,52,0.00,,,0.00,Rainwise IP-100,2013-04-08 17:08:00,
2013-04-08 13:13:00,53.4,36.0,30.05,WSW,247,2.6,17.5,51,0.00,,,0.00,Rainwise IP-100,2013-04-08 17:13:00,
2013-04-08 13:18:00,53.2,35.0,30.05,NNW,337,10.0,17.0,51,0.00,,,0.00,Rainwise IP-100,2013-04-08 17:18:00,
2013-04-08 13:23:00,52.6,35.0,30.05,NNW,337,3.5,14.0,51,0.00,,,0.00,Rainwise IP-100,2013-04-08 17:23:00,
2013-04-08 13:28:00,52.8,35.0,30.05,NNW,337,6.1,13.3,51,0.00,,,0.00,Rainwise IP-100,2013-04-08 17:28:00,
2013-04-08 13:33:00,53.0,35.0,30.06,NNW,337,6.3,12.8,50,0.00,,,0.00,Rainwise IP-100,2013-04-08 17:33:00,
2013-04-08 13:38:00,53.0,35.0,30.06,WNW,292,3.7,12.8,50,0.00,,,0.00,Rainwise IP-100,2013-04-08 17:38:00,
2013-04-08 13:43:00,53.0,35.0,30.05,North,360,11.0,14.9,50,0.00,,,0.00,Rainwise IP-100,2013-04-08 17:43:00,
2013-04-08 13:48:00,53.1,35.0,30.05,WNW,292,9.1,12.1,50,0.00,,,0.00,Rainwise IP-100,2013-04-08 17:48:00,
2013-04-08 13:53:00,53.2,35.0,30.06,NW,315,4.0,14.5,50,0.00,,,0.00,Rainwise IP-100,2013-04-08 17:53:00,
2013-04-08 13:58:00,53.3,35.0,30.06,NW,315,5.6,11.4,49,0.00,,,0.00,Rainwise IP-100,2013-04-08 17:58:00,
2013-04-08 14:03:00,53.6,35.0,30.06,WNW,292,4.9,14.0,49,0.00,,,0.00,Rainwise IP-100,2013-04-08 18:03:00,
2013-04-08 14:08:00,54.1,35.0,30.06,NNW,337,5.4,12.6,48,0.00,,,0.00,Rainwise IP-100,2013-04-08 18:08:00,
2013-04-08 14:13:00,54.8,36.0,30.06,West,270,5.1,12.6,48,0.00,,,0.00,Rainwise IP-100,2013-04-08 18:13:00,
2013-04-08 14:18:00,55.1,36.0,30.06,NNE,22,4.7,11.2,47,0.00,,,0.00,Rainwise IP-100,2013-04-08 18:18:00,
2013-04-08 14:23:00,55.0,35.0,30.06,NW,315,8.4,11.9,46,0.00,,,0.00,Rainwise IP-100,2013-04-08 18:23:00,
2013-04-08 14:28:00,54.8,35.0,30.06,ENE,67,4.7,14.9,46,0.00,,,0.00,Rainwise IP-100,2013-04-08 18:28:00,
2013-04-08 14:33:00,54.1,35.0,30.06,NW,315,4.4,11.7,47,0.00,,,0.00,Rainwise IP-100,2013-04-08 18:33:00,
2013-04-08 14:38:00,54.0,35.0,30.06,WSW,247,3.5,9.8,47,0.00,,,0.00,Rainwise IP-100,2013-04-08 18:38:00,
2013-04-08 14:43:00,54.5,35.0,30.06,North,360,6.1,13.5,47,0.00,,,0.00,Rainwise IP-100,2013-04-08 18:43:00,
2013-04-08 14:48:00,55.2,35.0,30.06,NNW,337,5.4,9.6,46,0.00,,,0.00,Rainwise IP-100,2013-04-08 18:48:00,
2013-04-08 14:53:00,55.3,35.0,30.06,North,360,4.7,12.4,45,0.00,,,0.00,Rainwise IP-100,2013-04-08 18:53:00,
2013-04-08 14:58:00,54.8,35.0,30.06,NNW,337,14.0,14.0,46,0.00,,,0.00,Rainwise IP-100,2013-04-08 18:58:00,
2013-04-08 15:03:00,54.3,35.0,30.06,NW,315,0.0,14.0,46,0.00,,,0.00,Rainwise IP-100,2013-04-08 19:03:00,
2013-04-08 15:08:00,54.5,35.0,30.06,NNE,22,3.7,12.1,47,0.00,,,0.00,Rainwise IP-100,2013-04-08 19:08:00,
2013-04-08 15:13:00,54.8,35.0,30.06,SSE,157,1.2,13.8,46,0.00,,,0.00,Rainwise IP-100,2013-04-08 19:13:00,
2013-04-08 15:18:00,55.1,35.0,30.05,WNW,292,2.8,13.1,46,0.00,,,0.00,Rainwise IP-100,2013-04-08 19:18:00,
2013-04-08 15:23:00,55.6,35.0,30.06,NW,315,5.4,11.2,45,0.00,,,0.00,Rainwise IP-100,2013-04-08 19:23:00,
2013-04-08 15:28:00,55.4,35.0,30.06,SE,135,1.6,13.5,45,0.00,,,0.00,Rainwise IP-100,2013-04-08 19:28:00,
2013-04-08 15:33:00,55.3,35.0,30.06,NE,45,2.3,10.7,45,0.00,,,0.00,Rainwise IP-100,2013-04-08 19:33:00,
2013-04-08 15:38:00,55.9,35.0,30.06,NNE,22,11.7,11.7,45,0.00,,,0.00,Rainwise IP-100,2013-04-08 19:38:00,
2013-04-08 15:43:00,55.7,35.0,30.07,NNW,337,2.3,16.6,45,0.00,,,0.00,Rainwise IP-100,2013-04-08 19:43:00,
2013-04-08 15:48:00,55.0,35.0,30.06,NNE,22,3.7,5.6,46,0.00,,,0.00,Rainwise IP-100,2013-04-08 19:48:00,
2013-04-08 15:53:00,54.6,35.0,30.06,North,360,5.1,9.3,47,0.00,,,0.00,Rainwise IP-100,2013-04-08 19:53:00,
2013-04-08 15:58:00,54.5,35.0,30.06,NE,45,4.9,8.4,47,0.00,,,0.00,Rainwise IP-100,2013-04-08 19:58:00,
2013-04-08 16:03:00,54.3,35.0,30.06,ENE,67,4.4,11.2,47,0.00,,,0.00,Rainwise IP-100,2013-04-08 20:03:00,
2013-04-08 16:08:00,54.4,35.0,30.07,NNW,337,1.9,10.0,47,0.00,,,0.00,Rainwise IP-100,2013-04-08 20:08:00,
2013-04-08 16:13:00,54.4,35.0,30.07,North,360,3.5,14.2,47,0.00,,,0.00,Rainwise IP-100,2013-04-08 20:13:00,
2013-04-08 16:18:00,53.7,33.0,30.06,WNW,292,0.0,7.2,47,0.00,,,0.00,Rainwise IP-100,2013-04-08 20:18:00,
2013-04-08 16:23:00,53.9,35.0,30.06,NNE,22,1.2,4.7,48,0.00,,,0.00,Rainwise IP-100,2013-04-08 20:23:00,
2013-04-08 16:28:00,55.0,36.0,30.06,NNE,22,2.6,7.2,47,0.00,,,0.00,Rainwise IP-100,2013-04-08 20:28:00,
2013-04-08 16:33:00,55.9,36.0,30.06,ENE,67,4.0,7.7,46,0.00,,,0.00,Rainwise IP-100,2013-04-08 20:33:00,
2013-04-08 16:38:00,56.5,36.0,30.05,ESE,112,1.4,6.8,45,0.00,,,0.00,Rainwise IP-100,2013-04-08 20:38:00,
2013-04-08 16:43:00,56.7,35.0,30.05,NE,45,2.8,7.5,44,0.00,,,0.00,Rainwise IP-100,2013-04-08 20:43:00,
2013-04-08 16:48:00,56.3,35.0,30.05,ESE,112,1.6,7.9,44,0.00,,,0.00,Rainwise IP-100,2013-04-08 20:48:00,
2013-04-08 16:53:00,55.9,35.0,30.05,NNE,22,3.0,6.3,44,0.00,,,0.00,Rainwise IP-100,2013-04-08 20:53:00,
2013-04-08 16:58:00,55.8,35.0,30.06,SW,225,0.0,6.8,44,0.00,,,0.00,Rainwise IP-100,2013-04-08 20:58:00,
2013-04-08 17:03:00,55.5,35.0,30.06,NW,315,2.8,6.8,44,0.00,,,0.00,Rainwise IP-100,2013-04-08 21:03:00,
2013-04-08 17:08:00,55.4,33.0,30.06,ENE,67,2.6,6.1,44,0.00,,,0.00,Rainwise IP-100,2013-04-08 21:08:00,
2013-04-08 17:13:00,55.4,33.0,30.06,NNW,337,6.5,7.7,44,0.00,,,0.00,Rainwise IP-100,2013-04-08 21:13:00,
2013-04-08 17:18:00,55.1,33.0,30.06,NNE,22,3.7,8.4,44,0.00,,,0.00,Rainwise IP-100,2013-04-08 21:18:00,
2013-04-08 17:23:00,55.2,33.0,30.05,WNW,292,3.7,4.0,44,0.00,,,0.00,Rainwise IP-100,2013-04-08 21:23:00,
2013-04-08 17:28:00,55.3,33.0,30.05,North,360,4.4,7.7,44,0.00,,,0.00,Rainwise IP-100,2013-04-08 21:28:00,
2013-04-08 17:33:00,54.6,33.0,30.06,NNW,337,3.3,6.3,45,0.00,,,0.00,Rainwise IP-100,2013-04-08 21:33:00,
2013-04-08 17:38:00,53.8,33.0,30.06,NNW,337,3.5,8.4,46,0.00,,,0.00,Rainwise IP-100,2013-04-08 21:38:00,
2013-04-08 17:43:00,53.4,33.0,30.06,NNW,337,3.3,4.4,47,0.00,,,0.00,Rainwise IP-100,2013-04-08 21:43:00,
2013-04-08 17:48:00,53.0,33.0,30.07,NNW,337,1.9,5.4,47,0.00,,,0.00,Rainwise IP-100,2013-04-08 21:48:00,
2013-04-08 17:53:00,52.6,33.0,30.08,West,270,0.0,5.6,48,0.00,,,0.00,Rainwise IP-100,2013-04-08 21:53:00,
2013-04-08 17:58:00,52.7,33.0,30.08,ENE,67,1.2,4.2,48,0.00,,,0.00,Rainwise IP-100,2013-04-08 21:58:00,
2013-04-08 18:03:00,52.7,33.0,30.09,North,360,3.7,4.7,48,0.00,,,0.00,Rainwise IP-100,2013-04-08 22:03:00,
2013-04-08 18:08:00,52.3,33.0,30.10,NNW,337,3.0,5.6,49,0.00,,,0.00,Rainwise IP-100,2013-04-08 22:08:00,
2013-04-08 18:13:00,52.0,35.0,30.10,NNW,337,2.3,4.4,50,0.00,,,0.00,Rainwise IP-100,2013-04-08 22:13:00,
2013-04-08 18:18:00,52.0,35.0,30.10,NNW,337,2.8,4.2,50,0.00,,,0.00,Rainwise IP-100,2013-04-08 22:18:00,
2013-04-08 18:23:00,52.2,35.0,30.10,WSW,247,1.4,4.0,50,0.00,,,0.00,Rainwise IP-100,2013-04-08 22:23:00,
2013-04-08 18:28:00,52.0,35.0,30.11,NW,315,1.4,5.4,50,0.00,,,0.00,Rainwise IP-100,2013-04-08 22:28:00,
2013-04-08 18:33:00,51.5,35.0,30.11,WSW,247,2.3,7.0,50,0.00,,,0.00,Rainwise IP-100,2013-04-08 22:33:00,
2013-04-08 18:38:00,50.9,33.0,30.11,NNW,337,1.6,6.3,51,0.00,,,0.00,Rainwise IP-100,2013-04-08 22:38:00,
2013-04-08 18:43:00,50.4,33.0,30.11,NNW,337,2.3,7.2,51,0.00,,,0.00,Rainwise IP-100,2013-04-08 22:43:00,
2013-04-08 18:48:00,50.0,33.0,30.11,WNW,292,1.2,6.3,52,0.00,,,0.00,Rainwise IP-100,2013-04-08 22:48:00,
2013-04-08 18:53:00,49.6,33.0,30.11,NW,315,2.6,6.5,53,0.00,,,0.00,Rainwise IP-100,2013-04-08 22:53:00,
2013-04-08 18:58:00,49.0,33.0,30.11,NW,315,0.0,7.5,54,0.00,,,0.00,Rainwise IP-100,2013-04-08 22:58:00,
2013-04-08 19:03:00,48.5,33.0,30.12,NW,315,2.1,7.0,54,0.00,,,0.00,Rainwise IP-100,2013-04-08 23:03:00,
2013-04-08 19:08:00,48.0,33.0,30.12,WNW,292,1.9,5.6,56,0.00,,,0.00,Rainwise IP-100,2013-04-08 23:08:00,
2013-04-08 19:13:00,47.5,33.0,30.12,NNW,337,3.7,7.7,57,0.00,,,0.00,Rainwise IP-100,2013-04-08 23:13:00,
2013-04-08 19:18:00,47.0,33.0,30.13,WNW,292,6.8,9.3,58,0.00,,,0.00,Rainwise IP-100,2013-04-08 23:18:00,
2013-04-08 19:23:00,46.5,33.0,30.13,NW,315,1.6,12.1,59,0.00,,,0.00,Rainwise IP-100,2013-04-08 23:23:00,
2013-04-08 19:29:00,46.0,33.0,30.14,WNW,292,3.5,11.0,60,0.00,,,0.00,Rainwise IP-100,2013-04-08 23:29:00,
2013-04-08 19:34:00,45.6,33.0,30.14,NNW,337,5.4,8.9,61,0.00,,,0.00,Rainwise IP-100,2013-04-08 23:34:00,
2013-04-08 19:39:00,45.2,32.0,30.14,West,270,1.6,9.1,61,0.00,,,0.00,Rainwise IP-100,2013-04-08 23:39:00,
2013-04-08 19:44:00,44.8,33.0,30.14,NNW,337,4.4,8.2,62,0.00,,,0.00,Rainwise IP-100,2013-04-08 23:44:00,
2013-04-08 19:49:00,44.5,33.0,30.14,WNW,292,3.3,10.7,63,0.00,,,0.00,Rainwise IP-100,2013-04-08 23:49:00,
2013-04-08 19:54:00,44.1,32.0,30.14,NNE,22,3.3,9.1,63,0.00,,,0.00,Rainwise IP-100,2013-04-08 23:54:00,
2013-04-08 19:59:00,43.9,33.0,30.14,North,360,2.8,7.9,64,0.00,,,0.00,Rainwise IP-100,2013-04-08 23:59:00,
2013-04-08 20:04:00,43.7,33.0,30.14,NNW,337,4.9,6.3,64,0.00,,,0.00,Rainwise IP-100,2013-04-09 00:04:00,
2013-04-08 20:09:00,43.4,32.0,30.14,WNW,292,3.3,6.1,65,0.00,,,0.00,Rainwise IP-100,2013-04-09 00:09:00,
2013-04-08 20:14:00,43.1,32.0,30.14,NNE,22,3.3,8.9,65,0.00,,,0.00,Rainwise IP-100,2013-04-09 00:14:00,
2013-04-08 20:19:00,42.8,32.0,30.14,WNW,292,0.0,8.6,66,0.00,,,0.00,Rainwise IP-100,2013-04-09 00:19:00,
2013-04-08 20:24:00,42.5,32.0,30.14,NW,315,1.9,8.4,66,0.00,,,0.00,Rainwise IP-100,2013-04-09 00:24:00,
2013-04-08 20:29:00,42.3,32.0,30.14,NW,315,2.3,9.6,67,0.00,,,0.00,Rainwise IP-100,2013-04-09 00:29:00,
2013-04-08 20:34:00,42.1,32.0,30.14,North,360,2.8,9.1,68,0.00,,,0.00,Rainwise IP-100,2013-04-09 00:34:00,
2013-04-08 20:39:00,41.8,32.0,30.14,North,360,3.0,6.5,68,0.00,,,0.00,Rainwise IP-100,2013-04-09 00:39:00,
2013-04-08 20:44:00,41.4,32.0,30.14,NNE,22,3.5,6.3,69,0.00,,,0.00,Rainwise IP-100,2013-04-09 00:44:00,
2013-04-08 20:49:00,41.0,32.0,30.15,ENE,67,1.4,8.4,70,0.00,,,0.00,Rainwise IP-100,2013-04-09 00:49:00,
2013-04-08 20:54:00,40.7,32.0,30.14,NE,45,2.3,6.5,71,0.00,,,0.00,Rainwise IP-100,2013-04-09 00:54:00,
2013-04-08 20:59:00,40.5,32.0,30.14,NNW,337,1.4,5.6,71,0.00,,,0.00,Rainwise IP-100,2013-04-09 00:59:00,
2013-04-08 21:04:00,40.4,32.0,30.13,ENE,67,2.1,5.4,72,0.00,,,0.00,Rainwise IP-100,2013-04-09 01:04:00,
2013-04-08 21:09:00,40.3,32.0,30.14,North,360,3.0,9.3,72,0.00,,,0.00,Rainwise IP-100,2013-04-09 01:09:00,
2013-04-08 21:14:00,40.1,32.0,30.13,NNW,337,1.9,9.6,72,0.00,,,0.00,Rainwise IP-100,2013-04-09 01:14:00,
2013-04-08 21:19:00,40.1,32.0,30.14,NNE,22,2.1,9.6,72,0.00,,,0.00,Rainwise IP-100,2013-04-09 01:19:00,
2013-04-08 21:24:00,40.1,32.0,30.14,NNE,22,2.6,7.5,72,0.00,,,0.00,Rainwise IP-100,2013-04-09 01:24:00,
2013-04-08 21:29:00,40.1,32.0,30.14,NNW,337,3.3,8.4,73,0.00,,,0.00,Rainwise IP-100,2013-04-09 01:29:00,
2013-04-08 21:34:00,40.0,32.0,30.13,ENE,67,2.1,11.4,73,0.00,,,0.00,Rainwise IP-100,2013-04-09 01:34:00,
2013-04-08 21:39:00,39.7,32.0,30.14,NW,315,1.6,4.7,73,0.00,,,0.00,Rainwise IP-100,2013-04-09 01:39:00,
2013-04-08 21:44:00,39.3,32.0,30.14,NNE,22,0.0,3.0,74,0.00,,,0.00,Rainwise IP-100,2013-04-09 01:44:00,
2013-04-08 21:49:00,38.9,32.0,30.14,NNE,22,0.0,2.3,74,0.00,,,0.00,Rainwise IP-100,2013-04-09 01:49:00,
2013-04-08 21:54:00,38.6,32.0,30.14,NNW,337,1.9,3.0,75,0.00,,,0.00,Rainwise IP-100,2013-04-09 01:54:00,
2013-04-08 21:59:00,38.3,31.0,30.14,North,360,1.2,2.8,76,0.00,,,0.00,Rainwise IP-100,2013-04-09 01:59:00,
2013-04-08 22:04:00,38.0,32.0,30.14,NNE,22,1.2,4.0,77,0.00,,,0.00,Rainwise IP-100,2013-04-09 02:04:00,
2013-04-08 22:09:00,37.9,32.0,30.14,NNE,22,1.4,5.8,77,0.00,,,0.00,Rainwise IP-100,2013-04-09 02:09:00,
2013-04-08 22:14:00,38.0,32.0,30.14,NNE,22,2.6,4.9,77,0.00,,,0.00,Rainwise IP-100,2013-04-09 02:14:00,
2013-04-08 22:19:00,38.0,32.0,30.14,WNW,292,0.0,7.5,77,0.00,,,0.00,Rainwise IP-100,2013-04-09 02:19:00,
2013-04-08 22:24:00,38.1,32.0,30.15,WNW,292,1.2,2.8,77,0.00,,,0.00,Rainwise IP-100,2013-04-09 02:24:00,
2013-04-08 22:29:00,38.2,32.0,30.15,NNE,22,1.6,1.9,77,0.00,,,0.00,Rainwise IP-100,2013-04-09 02:29:00,
2013-04-08 22:34:00,38.1,32.0,30.16,NNE,22,0.0,3.7,77,0.00,,,0.00,Rainwise IP-100,2013-04-09 02:34:00,
2013-04-08 22:39:00,38.0,32.0,30.16,NNW,337,1.9,3.0,77,0.00,,,0.00,Rainwise IP-100,2013-04-09 02:39:00,
2013-04-08 22:44:00,37.8,32.0,30.16,WNW,292,1.9,3.5,78,0.00,,,0.00,Rainwise IP-100,2013-04-09 02:44:00,
2013-04-08 22:49:00,37.9,32.0,30.16,WNW,292,1.6,7.0,78,0.00,,,0.00,Rainwise IP-100,2013-04-09 02:49:00,
2013-04-08 22:54:00,38.3,32.0,30.16,WNW,292,1.2,3.7,77,0.00,,,0.00,Rainwise IP-100,2013-04-09 02:54:00,
2013-04-08 22:59:00,38.7,32.0,30.17,North,360,0.0,4.9,76,0.00,,,0.00,Rainwise IP-100,2013-04-09 02:59:00,
2013-04-08 23:04:00,38.9,32.0,30.17,NE,45,0.0,4.0,76,0.00,,,0.00,Rainwise IP-100,2013-04-09 03:04:00,
2013-04-08 23:09:00,38.9,32.0,30.16,NE,45,1.9,3.3,76,0.00,,,0.00,Rainwise IP-100,2013-04-09 03:09:00,
2013-04-08 23:15:00,38.7,32.0,30.16,NE,45,0.0,3.5,76,0.00,,,0.00,Rainwise IP-100,2013-04-09 03:15:00,
2013-04-08 23:20:00,38.6,32.0,30.16,NE,45,0.0,0.0,76,0.00,,,0.00,Rainwise IP-100,2013-04-09 03:20:00,
2013-04-08 23:25:00,38.4,31.0,30.16,NE,45,0.0,1.9,76,0.00,,,0.00,Rainwise IP-100,2013-04-09 03:25:00,
2013-04-08 23:30:00,38.3,32.0,30.15,NNE,22,1.2,1.9,77,0.00,,,0.00,Rainwise IP-100,2013-04-09 03:30:00,
2013-04-08 23:35:00,38.2,32.0,30.16,NNE,22,1.6,5.8,77,0.00,,,0.00,Rainwise IP-100,2013-04-09 03:35:00,
2013-04-08 23:40:00,38.1,32.0,30.16,NNE,22,0.0,3.0,77,0.00,,,0.00,Rainwise IP-100,2013-04-09 03:40:00,
2013-04-08 23:45:00,38.3,32.0,30.16,NNE,22,0.0,0.0,77,0.00,,,0.00,Rainwise IP-100,2013-04-09 03:45:00,
2013-04-08 23:50:00,38.7,32.0,30.17,North,360,0.0,4.0,76,0.00,,,0.00,Rainwise IP-100,2013-04-09 03:50:00,
2013-04-08 23:55:00,39.0,32.0,30.17,North,360,0.0,1.9,75,0.00,,,0.00,Rainwise IP-100,2013-04-09 03:55:00,